This is the latest recevied weather packets stored in our database for station/object JO1YDG-13. If no packets are shown the sender has not sent any weather packets the latest 10 day(s).
| Time | Temp. | Humidity | Pressure | Rain* | Wind** | Luminosity | Snow |
|---|---|---|---|---|---|---|---|
| 1777831521 | 15.56° C | 98% | 971.9 hPa | 3.56 mm | - | - | - |
| 1777831221 | 15.56° C | 98% | 972.1 hPa | 3.56 mm | - | - | - |
| 1777830921 | 15.56° C | 98% | 972.1 hPa | 3.56 mm | - | - | - |
| 1777830622 | 15.56° C | 98% | 972.5 hPa | 3.05 mm | - | - | - |
| 1777830322 | 15.56° C | 98% | 972.5 hPa | 3.05 mm | - | - | - |
| 1777830022 | 15.56° C | 97% | 972.5 hPa | 2.79 mm | - | - | - |
| 1777829722 | 15.56° C | 97% | 972.6 hPa | 2.54 mm | - | - | - |
| 1777829422 | 15.56° C | 97% | 972.6 hPa | 2.29 mm | - | - | - |
| 1777829121 | 15.56° C | 98% | 972.8 hPa | 2.29 mm | - | - | - |
| 1777828821 | 15.56° C | 98% | 972.8 hPa | 2.03 mm | - | - | - |
| 1777828521 | 15.56° C | 97% | 972.8 hPa | 1.78 mm | - | - | - |
| 1777828221 | 15.56° C | 96% | 972.9 hPa | 1.52 mm | - | - | - |
| 1777827922 | 15.56° C | 96% | 972.9 hPa | 1.27 mm | - | - | - |
| 1777827622 | 15.56° C | 96% | 973.1 hPa | 1.02 mm | - | - | - |
| 1777827322 | 15.56° C | 95% | 973.1 hPa | 0.76 mm | - | - | - |
| 1777827022 | 15.56° C | 95% | 973.7 hPa | 0.76 mm | - | - | - |
| 1777826721 | 15.56° C | 96% | 973.8 hPa | 0.51 mm | - | - | - |
| 1777826421 | 15.56° C | 96% | 973.8 hPa | 0.25 mm | - | - | - |
| 1777826121 | 15.56° C | 96% | 973.7 hPa | 0.25 mm | - | - | - |
| 1777825821 | 15.56° C | 95% | 973.7 hPa | 0.25 mm | - | - | - |
| 1777825521 | 15.56° C | 95% | 973.9 hPa | 0 mm | - | - | - |
| 1777825220 | 15.56° C | 94% | 973.9 hPa | 0 mm | - | - | - |
| 1777824922 | 15.56° C | 94% | 973.9 hPa | 0 mm | - | - | - |
| 1777824622 | 15.56° C | 95% | 974.2 hPa | 0 mm | - | - | - |
| 1777824322 | 15.56° C | 95% | 974.2 hPa | 0.25 mm | - | - | - |
* Rain latest hour (hover to see other rain measurements)
** Current wind speed in m/s (hover to see current wind gust speed)